Weather History for KDBQ - August, 2013

Change the Weather History Date:

Tuesday, August 27, 2013

  Actual Average Record
Temperature  
Mean Temperature 80 °F 69 °F  
Max Temperature 90 °F 79 °F 94 °F (1895)
Min Temperature 70 °F 59 °F 43 °F (1915)
Degree Days  
Heating Degree Days 0 1  
Month to date heating degree days 10 12  
Since 1 June heating degree days 71 60  
Since 1 July heating degree days 32 20  
Cooling Degree Days 15 5  
Month to date cooling degree days 133 160  
Year to date cooling degree days 485 560  
Since 1 June cooling degree days 440 523  
Growing Degree Days 30 (Base 50)    
Moisture  
Dew Point 72 °F    
Average Humidity 80    
Maximum Humidity 100    
Minimum Humidity 59    
Precipitation  
Precipitation 0.00 in 0.13 in 1.77 in (2009)
Month to date precipitation 2.72 3.85  
Year to date precipitation 30.43 25.43  
Snow  
Snow 0.00 in 0.00 in - ()
Month to date snowfall 0.0 0.0  
Since 1 June snowfall 0.0 0.0  
Since 1 July snowfall 0.0 0.0  
Snow Depth 0.00 in    
Sea Level Pressure  
Sea Level Pressure 29.91 in    
Wind  
Wind Speed 11 mph (SW)    
Max Wind Speed 20 mph    
Max Gust Speed 25 mph    
Visibility 10 miles    
Events      
T = Trace of Precipitation, MM = Missing Value Source: NWS Daily Summary

Daily Weather History Graph

Daily Weather History Graph

Search for Another Location

Airport or City:

Trip Planner

Search our weather history database for the weather conditions in past years. The results will help you decide how hot, cold, wet, or windy it might be!

Date:

Astronomy

Aug. 27, 2013 Rise Set
Actual Time 6:22 AM CDT 7:44 PM CDT
Civil Twilight 5:53 AM CDT 8:13 PM CDT
Nautical Twilight 5:18 AM CDT 8:48 PM CDT
Astronomical Twilight 4:41 AM CDT 9:26 PM CDT
Moon 11:29 PM CDT (8/27) 1:30 PM CDT (8/27)
Length of Visible Light 14h 20m
Length of Day
13h 21m
Waning Gibbous, 57% of the Moon is Illuminated
Aug 27
Waning Gibbous
Aug 28
Last Quarter
Sep 5
New
Sep 12
First Quarter
Sep 19
Full

Hourly Weather History & Observations

Time (CDT) Temp. Heat Index Dew Point Humidity Pressure Visibility Wind Dir Wind Speed Gust Speed Precip Events Conditions
12:53 AM 73.0 °F - 70.0 °F 90% 29.98 in 9.0 mi South 6.9 mph - N/A   Clear
1:53 AM 71.1 °F - 69.1 °F 93% 29.96 in 8.0 mi SSW 6.9 mph - N/A   Clear
2:53 AM 70.0 °F - 69.1 °F 97% 29.94 in 8.0 mi SW 8.1 mph - N/A   Clear
3:53 AM 72.0 °F - 69.1 °F 91% 29.94 in 10.0 mi SW 9.2 mph - N/A   Clear
4:53 AM 72.0 °F - 69.1 °F 91% 29.95 in 10.0 mi SSW 8.1 mph - N/A   Clear
5:53 AM 72.0 °F - 69.1 °F 91% 29.96 in 10.0 mi SSW 6.9 mph - N/A   Clear
6:53 AM 72.0 °F - 69.1 °F 91% 29.97 in 10.0 mi SSW 8.1 mph - N/A   Clear
7:53 AM 75.0 °F - 71.1 °F 87% 29.96 in 10.0 mi SW 11.5 mph - N/A   Clear
8:53 AM 77.0 °F - 71.1 °F 82% 29.94 in 10.0 mi SW 15.0 mph - N/A   Clear
9:53 AM 81.0 °F 84.9 °F 71.1 °F 72% 29.92 in 10.0 mi SW 20.7 mph - N/A   Clear
10:53 AM 82.9 °F 88.0 °F 72.0 °F 69% 29.91 in 10.0 mi WSW 16.1 mph - N/A   Clear
11:53 AM 84.9 °F 91.4 °F 73.0 °F 67% 29.90 in 10.0 mi SW 17.3 mph 21.9 mph N/A   Clear
12:53 PM 87.1 °F 94.5 °F 73.0 °F 63% 29.89 in 10.0 mi WSW 16.1 mph - N/A   Clear
1:53 PM 88.0 °F 96.5 °F 73.9 °F 63% 29.88 in 10.0 mi WSW 16.1 mph - N/A   Clear
2:53 PM 89.1 °F 97.0 °F 73.0 °F 59% 29.86 in 10.0 mi SW 13.8 mph - N/A   Clear
3:53 PM 89.1 °F 98.0 °F 73.9 °F 61% 29.85 in 10.0 mi SW 16.1 mph - N/A   Clear
4:53 PM 89.1 °F 98.0 °F 73.9 °F 61% 29.85 in 10.0 mi SW 12.7 mph - N/A   Clear
5:53 PM 88.0 °F 96.5 °F 73.9 °F 63% 29.85 in 10.0 mi SW 12.7 mph - N/A   Clear
6:53 PM 86.0 °F 93.8 °F 73.9 °F 67% 29.83 in 10.0 mi SW 10.4 mph - N/A   Clear
7:53 PM 81.0 °F 86.2 °F 73.9 °F 79% 29.85 in 10.0 mi SW 5.8 mph - N/A   Clear
8:53 PM 78.1 °F - 73.0 °F 84% 29.87 in 10.0 mi SSW 3.5 mph - N/A   Clear
9:53 PM 75.9 °F - 73.0 °F 91% 29.88 in 10.0 mi SSW 5.8 mph - N/A   Clear
10:53 PM 75.9 °F - 72.0 °F 87% 29.89 in 10.0 mi SSW 5.8 mph - N/A   Clear
11:53 PM 75.9 °F - 71.1 °F 85% 29.88 in 10.0 mi SW 3.5 mph - N/A   Clear